This is the latest recevied weather packets stored in our database for station/object KC3SOZ. If no packets are shown the sender has not sent any weather packets the latest 10 day(s).
| Time | Temp. | Humidity | Pressure | Rain* | Wind** | Luminosity | Snow |
|---|---|---|---|---|---|---|---|
| 1778091369 | 16.11° C | 99% | 1008 hPa | 0 mm | - | 349 W/m² | - |
| 1778091066 | 15.56° C | 99% | 1008.1 hPa | 0 mm | - | 214 W/m² | - |
| 1778090762 | 15.56° C | 99% | 1008.5 hPa | 0 mm | - | 133 W/m² | - |
| 1778090459 | 15.56° C | 99% | 1008.4 hPa | 1.78 mm | - | 129 W/m² | - |
| 1778090155 | 15.56° C | 99% | 1008.8 hPa | 0 mm | - | 113 W/m² | - |
| 1778089851 | 15.56° C | 99% | 1008.7 hPa | 0 mm | - | 105 W/m² | - |
| 1778089550 | 15.56° C | 99% | 1008.5 hPa | 0 mm | - | 145 W/m² | - |
| 1778089246 | 15.56° C | 99% | 1008.6 hPa | 1.27 mm | - | 123 W/m² | - |
| 1778088944 | 15.56° C | 99% | 1008.4 hPa | 1.27 mm | - | 127 W/m² | - |
| 1778088641 | 15.56° C | 99% | 1008.5 hPa | 0 mm | - | 101 W/m² | - |
| 1778088338 | 15.56° C | 99% | 1008.6 hPa | 1.78 mm | - | 99 W/m² | - |
| 1778088034 | 15.56° C | 99% | 1008.2 hPa | 1.78 mm | - | 109 W/m² | - |
| 1778087732 | 15.56° C | 99% | 1008.4 hPa | 1.27 mm | - | 96 W/m² | - |
| 1778087429 | 15.56° C | 99% | 1008.6 hPa | 1.27 mm | - | 113 W/m² | - |
| 1778087126 | 15.56° C | 99% | 1008.5 hPa | 1.78 mm | - | 105 W/m² | - |
| 1778086818 | 15.56° C | 99% | 1008.5 hPa | 1.27 mm | - | 102 W/m² | - |
| 1778086517 | 15.56° C | 99% | 1008.6 hPa | 3.05 mm | - | 97 W/m² | - |
| 1778086212 | 15.56° C | 99% | 1008.4 hPa | 3.05 mm | - | 85 W/m² | - |
| 1778085909 | 15.56° C | 99% | 1008.4 hPa | 1.27 mm | - | 90 W/m² | - |
| 1778085607 | 15.56° C | 97% | 1008.2 hPa | 0 mm | - | 39 W/m² | - |
| 1778085302 | 15.56° C | 98% | 1008.5 hPa | 0 mm | - | 33 W/m² | - |
| 1778084997 | 15.56° C | 98% | 1008.5 hPa | 0 mm | - | 36 W/m² | - |
| 1778084695 | 15.56° C | 98% | 1008.7 hPa | 0 mm | - | 31 W/m² | - |
| 1778084392 | 15.56° C | 98% | 1008.6 hPa | 0 mm | - | 39 W/m² | - |
| 1778084090 | 15.56° C | 97% | 1008.7 hPa | 0 mm | - | 65 W/m² | - |
* Rain latest hour (hover to see other rain measurements)
** Current wind speed in m/s (hover to see current wind gust speed)